(38324) = 1998 HK44 = 1999 RA128

Discovered at Socorro on 1999-09-09 by LINEAR.

Orbit

Orbit type: Main Belt

Note: WebGL enabled browser required.

epoch2024-03-31.0
epoch JD2460400.5
perihelion date2021-01-22.18055
perihelion JD2459236.68055
argument of perihelion (°)135.27628
ascending node (°)181.61987
inclination (°)1.67681
eccentricity0.0806643
perihelion distance (AU)2.4335657
Tisserand w.r.t. Jupiter3.4
ΔV w.r.t. Earth (km/sec)9.8
semimajor axis (AU)2.6470913
mean anomaly (°)266.33980
mean daily motion (°/day)0.22884980
aphelion distance (AU)2.861
period (years)4.31
P-vector [x]0.73010795
P-vector [y]-0.63485066
P-vector [z]-0.25279839
Q-vector [x]0.68333133
Q-vector [y]0.67785977
Q-vector [z]0.27122762
absolute magnitude15.29
phase slope0.15
uncertainty0
referenceMPEC 2024-E190
observations used1387
oppositions22
arc length (days)11813
first opposition used1991
last opposition used2024
residual rms (arc-secs)0.71
perturbers coarse indicatorM-v
perturbers precise indicator003Ek
first observation date used1991-10-17.0
last observation date used2024-02-19.0
computer nameMPCLINUX
JD of orbit computation2456700.338112
perihelion JD uncertainty (days)1.4204E-04
argument of perihelion uncertainty (°)1.3893E-04
ascending node uncertainty (°)1.3512E-04
inclination uncertainty (°)5.5941E-06
eccentricity uncertainty 4.3881E-08
perihelion distance uncertainty (AU)1.1785E-07
Minimum Orbit Intersection Distances (in AU)
for orbit epoch: 2460400.5, reference: E2024-GH2
Mercury2.00511
Venus1.70806
Earth1.4202
Mars1.03791
Jupiter2.33487
Saturn6.23501
Uranus15.6007
Neptune27.1791

Observations

1416 total observations over interval: 1991 10 17.35417 – 2024 02 19.645516
These data are available for download (format description).

Date (UT) J2000 RA J2000 Dec Magn Location Ref
1991 10 17.35417 03 06 00.38 +15 49 16.3   261 – Palomar Mountain-DSS MPS 27517
1991 10 17.39236 03 05 58.77 +15 49 07.3   261 – Palomar Mountain-DSS MPS 27517
1991 11 05.40372 02 49 46.17 +14 26 39.2 19.1 V 691 – Steward Observatory, Kitt Peak-Spacewatch MPS 6827
1991 11 05.42430 02 49 45.00 +14 26 32.9   691 – Steward Observatory, Kitt Peak-Spacewatch MPS 6827
1991 11 05.44504 02 49 43.82 +14 26 26.8   691 – Steward Observatory, Kitt Peak-Spacewatch MPS 6827
1998 03 25.34188 13 46 41.13 -10 10 43.0 19.0   704 – Lincoln Laboratory ETS, New Mexico MPS 6827
1998 03 25.36206 13 46 40.22 -10 10 38.3 20.0   704 – Lincoln Laboratory ETS, New Mexico MPS 6827
1998 03 25.38241 13 46 39.37 -10 10 30.9 20.0   704 – Lincoln Laboratory ETS, New Mexico MPS 6827
1998 03 25.40254 13 46 38.39 -10 10 28.9 19.9   704 – Lincoln Laboratory ETS, New Mexico MPS 6827
1998 03 25.42267 13 46 37.76 -10 10 24.1 19.9   704 – Lincoln Laboratory ETS, New Mexico MPS 6827
1998 03 29.29538 13 43 59.73 -09 52 35.4 19.6   704 – Lincoln Laboratory ETS, New Mexico MPS 6827
1998 03 29.33588 13 43 57.92 -09 52 24.1 19.5   704 – Lincoln Laboratory ETS, New Mexico MPS 6827
1998 03 29.35620 13 43 56.97 -09 52 18.8 20.1   704 – Lincoln Laboratory ETS, New Mexico MPS 6827
1998 03 29.37640 13 43 55.81 -09 52 12.6 20.1   704 – Lincoln Laboratory ETS, New Mexico MPS 6827
1998 04 20.25176 13 26 06.75 -07 54 29.6 18.7   704 – Lincoln Laboratory ETS, New Mexico MPS 1112
1998 04 20.29205 13 26 04.63 -07 54 15.5 19.0   704 – Lincoln Laboratory ETS, New Mexico MPS 1112
1998 04 20.31211 13 26 03.72 -07 54 08.4 19.0   704 – Lincoln Laboratory ETS, New Mexico MPS 1112
1998 04 20.33226 13 26 02.51 -07 54 01.6 18.7   704 – Lincoln Laboratory ETS, New Mexico MPS 1112
1998 04 21.19925 13 25 19.40 -07 49 13.3 19.3   704 – Lincoln Laboratory ETS, New Mexico MPS 1112
1998 04 21.21930 13 25 18.27 -07 49 08.4 18.8   704 – Lincoln Laboratory ETS, New Mexico MPS 1112
1998 04 21.23936 13 25 17.15 -07 49 03.6 19.1   704 – Lincoln Laboratory ETS, New Mexico MPS 1112
1998 04 21.25939 13 25 16.15 -07 48 54.4 18.8   704 – Lincoln Laboratory ETS, New Mexico MPS 1112
1998 04 21.27948 13 25 15.18 -07 48 49.2 18.8   704 – Lincoln Laboratory ETS, New Mexico MPS 1112
1998 04 22.24246 13 24 27.12 -07 43 34.5 19.3   704 – Lincoln Laboratory ETS, New Mexico MPS 1112
1998 04 22.26138 13 24 26.08 -07 43 27.7 19.2   704 – Lincoln Laboratory ETS, New Mexico MPS 1112
1998 04 22.28010 13 24 25.21 -07 43 20.7 19.2   704 – Lincoln Laboratory ETS, New Mexico MPS 1112
1998 04 22.29897 13 24 24.25 -07 43 16.0 18.7   704 – Lincoln Laboratory ETS, New Mexico MPS 1112
1998 04 22.31812 13 24 23.24 -07 43 06.9 18.7   704 – Lincoln Laboratory ETS, New Mexico MPS 1112
1999 08 07.37876 22 06 06.81 -09 48 34.2 18.9 R 699 – Lowell Observatory-LONEOS MPS 6326
1999 08 07.40424 22 06 05.55 -09 48 41.3   699 – Lowell Observatory-LONEOS MPS 6326
1999 08 07.42973 22 06 04.36 -09 48 47.8   699 – Lowell Observatory-LONEOS MPS 6326
1999 08 08.32692 22 05 23.85 -09 52 54.0 18.7 R 699 – Lowell Observatory-LONEOS MPS 6326
1999 08 08.35236 22 05 22.74 -09 53 02.1   699 – Lowell Observatory-LONEOS MPS 6326
1999 08 08.37780 22 05 21.50 -09 53 08.7   699 – Lowell Observatory-LONEOS MPS 6326
1999 08 08.43967 22 05 18.51 -09 53 25.5 19.1 V 691 – Steward Observatory, Kitt Peak-Spacewatch MPS 6326
1999 08 08.45106 22 05 17.96 -09 53 28.8 19.0 V 691 – Steward Observatory, Kitt Peak-Spacewatch MPS 6326
1999 08 08.46246 22 05 17.42 -09 53 31.9 19.0 V 691 – Steward Observatory, Kitt Peak-Spacewatch MPS 6326
1999 08 12.27711 22 02 18.15 -10 11 46.9 18.4 R 699 – Lowell Observatory-LONEOS MPS 6326
1999 08 12.29747 22 02 17.25 -10 11 54.3   699 – Lowell Observatory-LONEOS MPS 6326
1999 08 12.31786 22 02 16.23 -10 11 59.6   699 – Lowell Observatory-LONEOS MPS 6326
1999 09 07.30563 21 41 36.87 -12 21 29.6 19.1   704 – Lincoln Laboratory ETS, New Mexico MPS 6326
1999 09 07.31778 21 41 36.37 -12 21 32.3 19.1   704 – Lincoln Laboratory ETS, New Mexico MPS 6326
1999 09 07.32998 21 41 35.90 -12 21 35.6 19.2   704 – Lincoln Laboratory ETS, New Mexico MPS 6326
1999 09 09.26944 21 40 20.85 -12 29 52.1 18.8   704 – Lincoln Laboratory ETS, New Mexico MPS 6326
1999 09 09.28350 21 40 20.31 -12 29 55.4 19.0   704 – Lincoln Laboratory ETS, New Mexico MPS 6326
1999 09 09.29771 21 40 19.82 -12 29 59.0 19.1   704 – Lincoln Laboratory ETS, New Mexico MPS 6326
1999 09 09.31214 21 40 19.26 -12 30 01.4 19.1   704 – Lincoln Laboratory ETS, New Mexico MPS 6326
1999 09 09.32612 21 40 18.71 -12 30 05.2 19.2   704 – Lincoln Laboratory ETS, New Mexico MPS 6326
1999 09 13.23555 21 38 01.96 -12 45 34.2 19.5   704 – Lincoln Laboratory ETS, New Mexico MPS 6326
1999 09 13.25907 21 38 01.16 -12 45 39.6 19.4   704 – Lincoln Laboratory ETS, New Mexico MPS 6326
1999 09 13.27065 21 38 00.70 -12 45 42.3 19.1   704 – Lincoln Laboratory ETS, New Mexico MPS 6326
2000 12 30.22536 05 18 41.19 +20 33 45.7 20.0   704 – Lincoln Laboratory ETS, New Mexico MPS 23654
2000 12 30.24036 05 18 40.22 +20 33 45.7 20.3   704 – Lincoln Laboratory ETS, New Mexico MPS 23654
2000 12 30.25547 05 18 39.45 +20 33 45.2 20.4   704 – Lincoln Laboratory ETS, New Mexico MPS 23654
2000 12 30.27048 05 18 38.74 +20 33 44.0 19.8   704 – Lincoln Laboratory ETS, New Mexico MPS 23654
2000 12 30.28537 05 18 37.91 +20 33 43.6 19.6   704 – Lincoln Laboratory ETS, New Mexico MPS 23654
2001 01 03.15777 05 15 23.64 +20 31 48.0 19.7   704 – Lincoln Laboratory ETS, New Mexico MPS 23654
2001 01 03.17282 05 15 23.09 +20 31 48.7 19.4   704 – Lincoln Laboratory ETS, New Mexico MPS 23654
2001 01 03.18792 05 15 22.26 +20 31 47.7 19.5   704 – Lincoln Laboratory ETS, New Mexico MPS 23654
2001 01 03.20296 05 15 21.52 +20 31 47.6 19.4   704 – Lincoln Laboratory ETS, New Mexico MPS 23654
2001 01 04.14465 05 14 37.08 +20 31 23.4 19.0   704 – Lincoln Laboratory ETS, New Mexico MPS 23654
2001 01 04.17549 05 14 35.66 +20 31 22.8 19.2   704 – Lincoln Laboratory ETS, New Mexico MPS 23654
2001 01 04.19065 05 14 34.85 +20 31 22.9 19.5   704 – Lincoln Laboratory ETS, New Mexico MPS 23654
2001 01 04.20580 05 14 34.18 +20 31 22.4 19.5   704 – Lincoln Laboratory ETS, New Mexico MPS 23654
2001 01 05.19297 05 13 48.85 +20 30 58.8 19.6 V 691 – Steward Observatory, Kitt Peak-Spacewatch MPS 23654
2001 01 05.21545 05 13 47.79 +20 30 58.0 19.4 V 691 – Steward Observatory, Kitt Peak-Spacewatch MPS 23654
2001 01 05.23769 05 13 46.74 +20 30 57.9 19.7 V 691 – Steward Observatory, Kitt Peak-Spacewatch MPS 23654
2002 02 07.39096 12 01 06.40 -00 46 50.1 19.8   704 – Lincoln Laboratory ETS, New Mexico MPS 48698
2002 02 07.40580 12 01 05.95 -00 46 49.1 20.4   704 – Lincoln Laboratory ETS, New Mexico MPS 48698
2002 02 07.42039 12 01 05.77 -00 46 46.5 20.1   704 – Lincoln Laboratory ETS, New Mexico MPS 48698
2002 02 07.43499 12 01 05.39 -00 46 45.3 20.4   704 – Lincoln Laboratory ETS, New Mexico MPS 48698
2002 02 11.44572 11 59 37.39 -00 35 50.9 19.5   704 – Lincoln Laboratory ETS, New Mexico MPS 51591
2002 02 11.46438 11 59 36.89 -00 35 47.4 19.9   704 – Lincoln Laboratory ETS, New Mexico MPS 51591
2002 02 11.47963 11 59 36.51 -00 35 43.6 19.7   704 – Lincoln Laboratory ETS, New Mexico MPS 51591
2002 02 11.49506 11 59 36.07 -00 35 41.9 19.6   704 – Lincoln Laboratory ETS, New Mexico MPS 51591
2002 02 15.38923 11 57 49.55 -00 22 40.2 19.7   704 – Lincoln Laboratory ETS, New Mexico MPS 51591
2002 02 15.40340 11 57 49.17 -00 22 35.6 20.5   704 – Lincoln Laboratory ETS, New Mexico MPS 51592
2002 02 15.41803 11 57 48.67 -00 22 33.8 19.9   704 – Lincoln Laboratory ETS, New Mexico MPS 51592
2002 02 15.43226 11 57 48.21 -00 22 31.1 19.9   704 – Lincoln Laboratory ETS, New Mexico MPS 51592
2002 02 15.44666 11 57 47.72 -00 22 27.6 19.8   704 – Lincoln Laboratory ETS, New Mexico MPS 51592
2002 02 25.37342 11 51 52.00 +00 20 23.3 19.8   644 – Palomar Mountain/NEAT MPS 51592
2002 02 25.38392 11 51 51.52 +00 20 26.2 19.5   644 – Palomar Mountain/NEAT MPS 51592
2002 02 25.39677 11 51 51.03 +00 20 30.0 19.4   644 – Palomar Mountain/NEAT MPS 51592
2002 03 09.31513 11 42 45.01 +01 25 42.7 19.0   704 – Lincoln Laboratory ETS, New Mexico MPS 51592
